owner,sensor,date,latitude,longitude,air_pressure(mBar),qcFlag 
WAVCIS,ioos:station:WAVCIS:CSI15:1,2009-02-01T00:00:00Z,28.8332,-90.8320,1020.9,11111222 
WAVCIS,ioos:station:WAVCIS:CSI15:1,2009-02-01T01:00:00Z,28.8332,-90.8320,1021.05,11111222 
WAVCIS,ioos:station:WAVCIS:CSI15:1,2009-02-01T02:00:00Z,28.8332,-90.8320,1021.22,11111222 
WAVCIS,ioos:station:WAVCIS:CSI15:1,2009-02-01T03:00:00Z,28.8332,-90.8320,1021.11,11111222 
WAVCIS,ioos:station:WAVCIS:CSI15:1,2009-02-01T04:00:00Z,28.8332,-90.8320,1020.81,11111222 
WAVCIS,ioos:station:WAVCIS:CSI15:1,2009-02-01T05:00:00Z,28.8332,-90.8320,1019.94,11111222 
WAVCIS,ioos:station:WAVCIS:CSI15:1,2009-02-01T06:00:00Z,28.8332,-90.8320,1019.48,11111222 
WAVCIS,ioos:station:WAVCIS:CSI15:1,2009-02-01T07:00:00Z,28.8332,-90.8320,1018.99,11111222 
WAVCIS,ioos:station:WAVCIS:CSI15:1,2009-02-01T08:00:00Z,28.8332,-90.8320,1018.75,11111222 
WAVCIS,ioos:station:WAVCIS:CSI15:1,2009-02-01T09:00:00Z,28.8332,-90.8320,1017.86,11111222 
WAVCIS,ioos:station:WAVCIS:CSI15:1,2009-02-01T10:00:00Z,28.8332,-90.8320,1017.41,11111222 
WAVCIS,ioos:station:WAVCIS:CSI15:1,2009-02-01T11:00:00Z,28.8332,-90.8320,1017.15,11111222 
WAVCIS,ioos:station:WAVCIS:CSI15:1,2009-02-01T12:00:00Z,28.8332,-90.8320,1017.39,11111222 
WAVCIS,ioos:station:WAVCIS:CSI15:1,2009-02-01T13:00:00Z,28.8332,-90.8320,1017.72,11111222 
WAVCIS,ioos:station:WAVCIS:CSI15:1,2009-02-01T14:00:00Z,28.8332,-90.8320,1017.78,11111222 
WAVCIS,ioos:station:WAVCIS:CSI15:1,2009-02-01T15:00:00Z,28.8332,-90.8320,1017.71,11111222 
WAVCIS,ioos:station:WAVCIS:CSI15:1,2009-02-01T16:00:00Z,28.8332,-90.8320,1017.53,11111222 
WAVCIS,ioos:station:WAVCIS:CSI15:1,2009-02-01T17:00:00Z,28.8332,-90.8320,1017.04,11111222 
WAVCIS,ioos:station:WAVCIS:CSI15:1,2009-02-01T18:00:00Z,28.8332,-90.8320,1015.81,11111222 
WAVCIS,ioos:station:WAVCIS:CSI15:1,2009-02-01T19:00:00Z,28.8332,-90.8320,1014.08,11111222 
WAVCIS,ioos:station:WAVCIS:CSI15:1,2009-02-01T20:00:00Z,28.8332,-90.8320,1013.36,11111222 
WAVCIS,ioos:station:WAVCIS:CSI15:1,2009-02-01T21:00:00Z,28.8332,-90.8320,1013.06,11111222 
WAVCIS,ioos:station:WAVCIS:CSI15:1,2009-02-01T22:00:00Z,28.8332,-90.8320,1012.99,11111222 
WAVCIS,ioos:station:WAVCIS:CSI15:1,2009-02-01T23:00:00Z,28.8332,-90.8320,1012.59,11111222 
WAVCIS,ioos:station:WAVCIS:CSI15:1,2009-02-02T00:00:00Z,28.8332,-90.8320,1012.2,11111222 
WAVCIS,ioos:station:WAVCIS:CSI15:1,2009-02-02T01:00:00Z,28.8332,-90.8320,1012.23,11111222 
WAVCIS,ioos:station:WAVCIS:CSI15:1,2009-02-02T02:00:00Z,28.8332,-90.8320,1012.55,11111222 
WAVCIS,ioos:station:WAVCIS:CSI15:1,2009-02-02T03:00:00Z,28.8332,-90.8320,1012.36,11111222 
WAVCIS,ioos:station:WAVCIS:CSI15:1,2009-02-02T04:00:00Z,28.8332,-90.8320,1011.98,11111222 
WAVCIS,ioos:station:WAVCIS:CSI15:1,2009-02-02T05:00:00Z,28.8332,-90.8320,1011.53,11111222 
WAVCIS,ioos:station:WAVCIS:CSI15:1,2009-02-02T06:00:00Z,28.8332,-90.8320,1011.31,11111222 
WAVCIS,ioos:station:WAVCIS:CSI15:1,2009-02-02T07:00:00Z,28.8332,-90.8320,1011.34,11111222 
WAVCIS,ioos:station:WAVCIS:CSI15:1,2009-02-02T08:00:00Z,28.8332,-90.8320,1010.89,11111222 
WAVCIS,ioos:station:WAVCIS:CSI15:1,2009-02-02T09:00:00Z,28.8332,-90.8320,1010.54,11111222 
WAVCIS,ioos:station:WAVCIS:CSI15:1,2009-02-02T10:00:00Z,28.8332,-90.8320,1012.0,11111222 
WAVCIS,ioos:station:WAVCIS:CSI15:1,2009-02-02T11:00:00Z,28.8332,-90.8320,1010.68,11111222 
WAVCIS,ioos:station:WAVCIS:CSI15:1,2009-02-02T12:00:00Z,28.8332,-90.8320,1010.8,11111222 
WAVCIS,ioos:station:WAVCIS:CSI15:1,2009-02-02T13:00:00Z,28.8332,-90.8320,1011.17,11111222 
WAVCIS,ioos:station:WAVCIS:CSI15:1,2009-02-02T14:00:00Z,28.8332,-90.8320,1012.52,11111222 
WAVCIS,ioos:station:WAVCIS:CSI15:1,2009-02-02T15:00:00Z,28.8332,-90.8320,1012.89,11111222 
WAVCIS,ioos:station:WAVCIS:CSI15:1,2009-02-02T16:00:00Z,28.8332,-90.8320,1012.94,11111222 
WAVCIS,ioos:station:WAVCIS:CSI15:1,2009-02-02T17:00:00Z,28.8332,-90.8320,1012.94,11111222 
WAVCIS,ioos:station:WAVCIS:CSI15:1,2009-02-02T18:00:00Z,28.8332,-90.8320,1012.51,11111222 
WAVCIS,ioos:station:WAVCIS:CSI15:1,2009-02-02T19:00:00Z,28.8332,-90.8320,1011.69,11111222 
WAVCIS,ioos:station:WAVCIS:CSI15:1,2009-02-02T20:00:00Z,28.8332,-90.8320,1011.8,11111222 
WAVCIS,ioos:station:WAVCIS:CSI15:1,2009-02-02T21:00:00Z,28.8332,-90.8320,1012.42,11111222 
WAVCIS,ioos:station:WAVCIS:CSI15:1,2009-02-02T22:00:00Z,28.8332,-90.8320,1013.33,11111222 
WAVCIS,ioos:station:WAVCIS:CSI15:1,2009-02-02T23:00:00Z,28.8332,-90.8320,1014.48,11111222 
WAVCIS,ioos:station:WAVCIS:CSI15:1,2009-02-03T00:00:00Z,28.8332,-90.8320,1015.6,11111222 
WAVCIS,ioos:station:WAVCIS:CSI15:1,2009-02-03T01:00:00Z,28.8332,-90.8320,1016.47,11111222 
WAVCIS,ioos:station:WAVCIS:CSI15:1,2009-02-03T02:00:00Z,28.8332,-90.8320,1017.62,11111222 
WAVCIS,ioos:station:WAVCIS:CSI15:1,2009-02-03T03:00:00Z,28.8332,-90.8320,1018.74,11111222 
WAVCIS,ioos:station:WAVCIS:CSI15:1,2009-02-03T04:00:00Z,28.8332,-90.8320,1019.41,11111222 
WAVCIS,ioos:station:WAVCIS:CSI15:1,2009-02-03T05:00:00Z,28.8332,-90.8320,1020.1,11111222 
WAVCIS,ioos:station:WAVCIS:CSI15:1,2009-02-03T06:00:00Z,28.8332,-90.8320,1020.16,11111222 
WAVCIS,ioos:station:WAVCIS:CSI15:1,2009-02-03T07:00:00Z,28.8332,-90.8320,1020.13,11111222 
WAVCIS,ioos:station:WAVCIS:CSI15:1,2009-02-03T08:00:00Z,28.8332,-90.8320,1020.23,11111222 
WAVCIS,ioos:station:WAVCIS:CSI15:1,2009-02-03T09:00:00Z,28.8332,-90.8320,1020.35,11111222 
WAVCIS,ioos:station:WAVCIS:CSI15:1,2009-02-03T10:00:00Z,28.8332,-90.8320,1020.13,11111222 
WAVCIS,ioos:station:WAVCIS:CSI15:1,2009-02-03T11:00:00Z,28.8332,-90.8320,1020.72,11111222 
WAVCIS,ioos:station:WAVCIS:CSI15:1,2009-02-03T12:00:00Z,28.8332,-90.8320,1020.95,11111222 
WAVCIS,ioos:station:WAVCIS:CSI15:1,2009-02-03T13:00:00Z,28.8332,-90.8320,1021.47,11111222 
WAVCIS,ioos:station:WAVCIS:CSI15:1,2009-02-03T14:00:00Z,28.8332,-90.8320,1022.21,11111222 
WAVCIS,ioos:station:WAVCIS:CSI15:1,2009-02-03T15:00:00Z,28.8332,-90.8320,1022.94,11111222 
WAVCIS,ioos:station:WAVCIS:CSI15:1,2009-02-03T16:00:00Z,28.8332,-90.8320,1023.57,11111222 
WAVCIS,ioos:station:WAVCIS:CSI15:1,2009-02-03T17:00:00Z,28.8332,-90.8320,1023.68,11111222 
WAVCIS,ioos:station:WAVCIS:CSI15:1,2009-02-03T18:00:00Z,28.8332,-90.8320,1022.73,11111222 
WAVCIS,ioos:station:WAVCIS:CSI15:1,2009-02-03T19:00:00Z,28.8332,-90.8320,1022.02,11111222 
WAVCIS,ioos:station:WAVCIS:CSI15:1,2009-02-03T20:00:00Z,28.8332,-90.8320,1021.23,11111222 
WAVCIS,ioos:station:WAVCIS:CSI15:1,2009-02-03T21:00:00Z,28.8332,-90.8320,1021.23,11111222 
WAVCIS,ioos:station:WAVCIS:CSI15:1,2009-02-03T22:00:00Z,28.8332,-90.8320,1021.35,11111222 
WAVCIS,ioos:station:WAVCIS:CSI15:1,2009-02-03T23:00:00Z,28.8332,-90.8320,1021.38,11111222 
WAVCIS,ioos:station:WAVCIS:CSI15:1,2009-02-04T00:00:00Z,28.8332,-90.8320,1021.66,11111222 
WAVCIS,ioos:station:WAVCIS:CSI15:1,2009-02-04T01:00:00Z,28.8332,-90.8320,1022.06,11111222 
WAVCIS,ioos:station:WAVCIS:CSI15:1,2009-02-04T02:00:00Z,28.8332,-90.8320,1022.52,11111222 
WAVCIS,ioos:station:WAVCIS:CSI15:1,2009-02-04T03:00:00Z,28.8332,-90.8320,1022.67,11111222 
WAVCIS,ioos:station:WAVCIS:CSI15:1,2009-02-04T04:00:00Z,28.8332,-90.8320,1023.16,11111222 
WAVCIS,ioos:station:WAVCIS:CSI15:1,2009-02-04T05:00:00Z,28.8332,-90.8320,1023.23,11111222 
WAVCIS,ioos:station:WAVCIS:CSI15:1,2009-02-04T06:00:00Z,28.8332,-90.8320,1023.37,11111222 
WAVCIS,ioos:station:WAVCIS:CSI15:1,2009-02-04T07:00:00Z,28.8332,-90.8320,1023.65,11111222 
WAVCIS,ioos:station:WAVCIS:CSI15:1,2009-02-04T08:00:00Z,28.8332,-90.8320,1024.23,11111222 
WAVCIS,ioos:station:WAVCIS:CSI15:1,2009-02-04T09:00:00Z,28.8332,-90.8320,1024.67,11111222 
WAVCIS,ioos:station:WAVCIS:CSI15:1,2009-02-04T10:00:00Z,28.8332,-90.8320,1024.86,11111222 
WAVCIS,ioos:station:WAVCIS:CSI15:1,2009-02-04T11:00:00Z,28.8332,-90.8320,1025.52,11111222 
WAVCIS,ioos:station:WAVCIS:CSI15:1,2009-02-04T12:00:00Z,28.8332,-90.8320,1026.63,11111222 
WAVCIS,ioos:station:WAVCIS:CSI15:1,2009-02-04T13:00:00Z,28.8332,-90.8320,1027.65,11111222 
WAVCIS,ioos:station:WAVCIS:CSI15:1,2009-02-04T14:00:00Z,28.8332,-90.8320,1028.66,11111222 
WAVCIS,ioos:station:WAVCIS:CSI15:1,2009-02-04T15:00:00Z,28.8332,-90.8320,1029.84,11111222 
WAVCIS,ioos:station:WAVCIS:CSI15:1,2009-02-04T16:00:00Z,28.8332,-90.8320,1030.31,11111222 
WAVCIS,ioos:station:WAVCIS:CSI15:1,2009-02-04T17:00:00Z,28.8332,-90.8320,1030.76,11111222 
WAVCIS,ioos:station:WAVCIS:CSI15:1,2009-02-04T18:00:00Z,28.8332,-90.8320,1030.42,11111222 
WAVCIS,ioos:station:WAVCIS:CSI15:1,2009-02-04T19:00:00Z,28.8332,-90.8320,1030.12,11111222 
WAVCIS,ioos:station:WAVCIS:CSI15:1,2009-02-04T20:00:00Z,28.8332,-90.8320,1030.17,11111222 
WAVCIS,ioos:station:WAVCIS:CSI15:1,2009-02-04T21:00:00Z,28.8332,-90.8320,1030.45,11111222 
WAVCIS,ioos:station:WAVCIS:CSI15:1,2009-02-04T22:00:00Z,28.8332,-90.8320,1030.48,11111222 
WAVCIS,ioos:station:WAVCIS:CSI15:1,2009-02-04T23:00:00Z,28.8332,-90.8320,1030.39,11111222 
WAVCIS,ioos:station:WAVCIS:CSI15:1,2009-02-05T00:00:00Z,28.8332,-90.8320,1030.7,11111222 
WAVCIS,ioos:station:WAVCIS:CSI15:1,2009-02-05T01:00:00Z,28.8332,-90.8320,1031.11,11111222 
WAVCIS,ioos:station:WAVCIS:CSI15:1,2009-02-05T02:00:00Z,28.8332,-90.8320,1031.43,11111222 
WAVCIS,ioos:station:WAVCIS:CSI15:1,2009-02-05T03:00:00Z,28.8332,-90.8320,1031.92,11111222 
WAVCIS,ioos:station:WAVCIS:CSI15:1,2009-02-05T04:00:00Z,28.8332,-90.8320,1032.1,11111222 
WAVCIS,ioos:station:WAVCIS:CSI15:1,2009-02-05T05:00:00Z,28.8332,-90.8320,1032.02,11111222 
WAVCIS,ioos:station:WAVCIS:CSI15:1,2009-02-05T06:00:00Z,28.8332,-90.8320,1031.81,11111222 
WAVCIS,ioos:station:WAVCIS:CSI15:1,2009-02-05T07:00:00Z,28.8332,-90.8320,1031.64,11111222 
WAVCIS,ioos:station:WAVCIS:CSI15:1,2009-02-05T08:00:00Z,28.8332,-90.8320,1031.52,11111222 
WAVCIS,ioos:station:WAVCIS:CSI15:1,2009-02-05T09:00:00Z,28.8332,-90.8320,1031.27,11111222 
WAVCIS,ioos:station:WAVCIS:CSI15:1,2009-02-05T10:00:00Z,28.8332,-90.8320,1031.01,11111222 
WAVCIS,ioos:station:WAVCIS:CSI15:1,2009-02-05T11:00:00Z,28.8332,-90.8320,1031.05,11111222 
WAVCIS,ioos:station:WAVCIS:CSI15:1,2009-02-05T12:00:00Z,28.8332,-90.8320,1031.2,11111222 
WAVCIS,ioos:station:WAVCIS:CSI15:1,2009-02-05T13:00:00Z,28.8332,-90.8320,1031.24,11111222 
WAVCIS,ioos:station:WAVCIS:CSI15:1,2009-02-05T14:00:00Z,28.8332,-90.8320,1031.71,11111222 
WAVCIS,ioos:station:WAVCIS:CSI15:1,2009-02-05T15:00:00Z,28.8332,-90.8320,1032.03,11111222 
WAVCIS,ioos:station:WAVCIS:CSI15:1,2009-02-05T16:00:00Z,28.8332,-90.8320,1032.66,11111222 
WAVCIS,ioos:station:WAVCIS:CSI15:1,2009-02-05T17:00:00Z,28.8332,-90.8320,1032.84,11111222 
WAVCIS,ioos:station:WAVCIS:CSI15:1,2009-02-05T18:00:00Z,28.8332,-90.8320,1032.39,11111222 
WAVCIS,ioos:station:WAVCIS:CSI15:1,2009-02-05T19:00:00Z,28.8332,-90.8320,1031.43,11111222 
WAVCIS,ioos:station:WAVCIS:CSI15:1,2009-02-05T20:00:00Z,28.8332,-90.8320,1030.75,11111222 
WAVCIS,ioos:station:WAVCIS:CSI15:1,2009-02-05T21:00:00Z,28.8332,-90.8320,1030.26,11111222 
WAVCIS,ioos:station:WAVCIS:CSI15:1,2009-02-05T22:00:00Z,28.8332,-90.8320,1029.81,11111222 
WAVCIS,ioos:station:WAVCIS:CSI15:1,2009-02-05T23:00:00Z,28.8332,-90.8320,1029.9,11111222 
WAVCIS,ioos:station:WAVCIS:CSI15:1,2009-02-06T00:00:00Z,28.8332,-90.8320,1029.78,11111222 
WAVCIS,ioos:station:WAVCIS:CSI15:1,2009-02-06T01:00:00Z,28.8332,-90.8320,1029.75,11111222 
WAVCIS,ioos:station:WAVCIS:CSI15:1,2009-02-06T02:00:00Z,28.8332,-90.8320,1029.84,11111222 
WAVCIS,ioos:station:WAVCIS:CSI15:1,2009-02-06T03:00:00Z,28.8332,-90.8320,1029.89,11111222 
WAVCIS,ioos:station:WAVCIS:CSI15:1,2009-02-06T04:00:00Z,28.8332,-90.8320,1029.83,11111222 
WAVCIS,ioos:station:WAVCIS:CSI15:1,2009-02-06T05:00:00Z,28.8332,-90.8320,1029.43,11111222 
WAVCIS,ioos:station:WAVCIS:CSI15:1,2009-02-06T06:00:00Z,28.8332,-90.8320,1028.95,11111222 
WAVCIS,ioos:station:WAVCIS:CSI15:1,2009-02-06T07:00:00Z,28.8332,-90.8320,1028.72,11111222 
WAVCIS,ioos:station:WAVCIS:CSI15:1,2009-02-06T08:00:00Z,28.8332,-90.8320,1028.36,11111222 
WAVCIS,ioos:station:WAVCIS:CSI15:1,2009-02-06T09:00:00Z,28.8332,-90.8320,1028.1,11111222 
WAVCIS,ioos:station:WAVCIS:CSI15:1,2009-02-06T10:00:00Z,28.8332,-90.8320,1027.69,11111222 
WAVCIS,ioos:station:WAVCIS:CSI15:1,2009-02-06T11:00:00Z,28.8332,-90.8320,1027.38,11111222 
WAVCIS,ioos:station:WAVCIS:CSI15:1,2009-02-06T12:00:00Z,28.8332,-90.8320,1027.42,11111222 
WAVCIS,ioos:station:WAVCIS:CSI15:1,2009-02-06T13:00:00Z,28.8332,-90.8320,1027.61,11111222 
WAVCIS,ioos:station:WAVCIS:CSI15:1,2009-02-06T14:00:00Z,28.8332,-90.8320,1027.76,11111222 
WAVCIS,ioos:station:WAVCIS:CSI15:1,2009-02-06T15:00:00Z,28.8332,-90.8320,1028.17,11111222 
WAVCIS,ioos:station:WAVCIS:CSI15:1,2009-02-06T16:00:00Z,28.8332,-90.8320,1028.47,11111222 
WAVCIS,ioos:station:WAVCIS:CSI15:1,2009-02-06T17:00:00Z,28.8332,-90.8320,1028.53,11111222 
WAVCIS,ioos:station:WAVCIS:CSI15:1,2009-02-06T18:00:00Z,28.8332,-90.8320,1028.16,11111222 
WAVCIS,ioos:station:WAVCIS:CSI15:1,2009-02-06T19:00:00Z,28.8332,-90.8320,1027.56,11111222 
WAVCIS,ioos:station:WAVCIS:CSI15:1,2009-02-06T20:00:00Z,28.8332,-90.8320,1026.97,11111222 
WAVCIS,ioos:station:WAVCIS:CSI15:1,2009-02-06T21:00:00Z,28.8332,-90.8320,1026.64,11111222 
WAVCIS,ioos:station:WAVCIS:CSI15:1,2009-02-06T22:00:00Z,28.8332,-90.8320,1026.32,11111222 
WAVCIS,ioos:station:WAVCIS:CSI15:1,2009-02-06T23:00:00Z,28.8332,-90.8320,1025.82,11111222 
WAVCIS,ioos:station:WAVCIS:CSI15:1,2009-02-07T00:00:00Z,28.8332,-90.8320,1025.64,11111222 
WAVCIS,ioos:station:WAVCIS:CSI15:1,2009-02-07T01:00:00Z,28.8332,-90.8320,1025.59,11111222 
WAVCIS,ioos:station:WAVCIS:CSI15:1,2009-02-07T02:00:00Z,28.8332,-90.8320,1025.6,11111222 
WAVCIS,ioos:station:WAVCIS:CSI15:1,2009-02-07T03:00:00Z,28.8332,-90.8320,1025.49,11111222 
WAVCIS,ioos:station:WAVCIS:CSI15:1,2009-02-07T04:00:00Z,28.8332,-90.8320,1025.36,11111222 
WAVCIS,ioos:station:WAVCIS:CSI15:1,2009-02-07T05:00:00Z,28.8332,-90.8320,1025.35,11111222 
WAVCIS,ioos:station:WAVCIS:CSI15:1,2009-02-07T06:00:00Z,28.8332,-90.8320,1025.22,11111222 
WAVCIS,ioos:station:WAVCIS:CSI15:1,2009-02-07T07:00:00Z,28.8332,-90.8320,1025.08,11111222 
WAVCIS,ioos:station:WAVCIS:CSI15:1,2009-02-07T08:00:00Z,28.8332,-90.8320,1024.96,11111222 
WAVCIS,ioos:station:WAVCIS:CSI15:1,2009-02-07T09:00:00Z,28.8332,-90.8320,1024.67,11111222 
WAVCIS,ioos:station:WAVCIS:CSI15:1,2009-02-07T10:00:00Z,28.8332,-90.8320,1024.7,11111222 
WAVCIS,ioos:station:WAVCIS:CSI15:1,2009-02-07T11:00:00Z,28.8332,-90.8320,1024.65,11111222 
WAVCIS,ioos:station:WAVCIS:CSI15:1,2009-02-07T12:00:00Z,28.8332,-90.8320,1025.23,11111222 
WAVCIS,ioos:station:WAVCIS:CSI15:1,2009-02-07T13:00:00Z,28.8332,-90.8320,1025.35,11111222 
WAVCIS,ioos:station:WAVCIS:CSI15:1,2009-02-07T14:00:00Z,28.8332,-90.8320,1025.48,11111222 
WAVCIS,ioos:station:WAVCIS:CSI15:1,2009-02-07T15:00:00Z,28.8332,-90.8320,1025.95,11111222 
WAVCIS,ioos:station:WAVCIS:CSI15:1,2009-02-07T16:00:00Z,28.8332,-90.8320,1026.59,11111222 
WAVCIS,ioos:station:WAVCIS:CSI15:1,2009-02-07T17:00:00Z,28.8332,-90.8320,1027.36,11111222 
WAVCIS,ioos:station:WAVCIS:CSI15:1,2009-02-07T18:00:00Z,28.8332,-90.8320,1026.95,11111222 
WAVCIS,ioos:station:WAVCIS:CSI15:1,2009-02-07T19:00:00Z,28.8332,-90.8320,1025.76,11111222 
WAVCIS,ioos:station:WAVCIS:CSI15:1,2009-02-07T20:00:00Z,28.8332,-90.8320,1024.69,11111222 
WAVCIS,ioos:station:WAVCIS:CSI15:1,2009-02-07T21:00:00Z,28.8332,-90.8320,1024.48,11111222 
WAVCIS,ioos:station:WAVCIS:CSI15:1,2009-02-07T22:00:00Z,28.8332,-90.8320,1024.24,11111222 
WAVCIS,ioos:station:WAVCIS:CSI15:1,2009-02-07T23:00:00Z,28.8332,-90.8320,1024.37,11111222 
WAVCIS,ioos:station:WAVCIS:CSI15:1,2009-02-08T00:00:00Z,28.8332,-90.8320,1024.57,11111222 
WAVCIS,ioos:station:WAVCIS:CSI15:1,2009-02-08T01:00:00Z,28.8332,-90.8320,1024.8,11111222 
WAVCIS,ioos:station:WAVCIS:CSI15:1,2009-02-08T02:00:00Z,28.8332,-90.8320,1024.96,11111222 
WAVCIS,ioos:station:WAVCIS:CSI15:1,2009-02-08T03:00:00Z,28.8332,-90.8320,1024.99,11111222 
WAVCIS,ioos:station:WAVCIS:CSI15:1,2009-02-08T04:00:00Z,28.8332,-90.8320,1024.57,11111222 
WAVCIS,ioos:station:WAVCIS:CSI15:1,2009-02-08T05:00:00Z,28.8332,-90.8320,1024.34,11111222 
WAVCIS,ioos:station:WAVCIS:CSI15:1,2009-02-08T06:00:00Z,28.8332,-90.8320,1024.11,11111222 
WAVCIS,ioos:station:WAVCIS:CSI15:1,2009-02-08T07:00:00Z,28.8332,-90.8320,1023.71,11111222 
WAVCIS,ioos:station:WAVCIS:CSI15:1,2009-02-08T08:00:00Z,28.8332,-90.8320,1023.39,11111222 
WAVCIS,ioos:station:WAVCIS:CSI15:1,2009-02-08T09:00:00Z,28.8332,-90.8320,1023.04,11111222 
WAVCIS,ioos:station:WAVCIS:CSI15:1,2009-02-08T10:00:00Z,28.8332,-90.8320,1023.06,11111222 
WAVCIS,ioos:station:WAVCIS:CSI15:1,2009-02-08T11:00:00Z,28.8332,-90.8320,1023.47,11111222 
WAVCIS,ioos:station:WAVCIS:CSI15:1,2009-02-08T12:00:00Z,28.8332,-90.8320,1023.79,11111222 
WAVCIS,ioos:station:WAVCIS:CSI15:1,2009-02-08T13:00:00Z,28.8332,-90.8320,1024.46,11111222 
WAVCIS,ioos:station:WAVCIS:CSI15:1,2009-02-08T14:00:00Z,28.8332,-90.8320,1025.3,11111222 
WAVCIS,ioos:station:WAVCIS:CSI15:1,2009-02-08T15:00:00Z,28.8332,-90.8320,1026.06,11111222 
WAVCIS,ioos:station:WAVCIS:CSI15:1,2009-02-08T16:00:00Z,28.8332,-90.8320,1026.39,11111222 
WAVCIS,ioos:station:WAVCIS:CSI15:1,2009-02-08T17:00:00Z,28.8332,-90.8320,1026.23,11111222 
WAVCIS,ioos:station:WAVCIS:CSI15:1,2009-02-08T18:00:00Z,28.8332,-90.8320,1025.3,11111222 
WAVCIS,ioos:station:WAVCIS:CSI15:1,2009-02-08T19:00:00Z,28.8332,-90.8320,1024.34,11111222 
WAVCIS,ioos:station:WAVCIS:CSI15:1,2009-02-08T20:00:00Z,28.8332,-90.8320,1023.67,11111222 
WAVCIS,ioos:station:WAVCIS:CSI15:1,2009-02-08T21:00:00Z,28.8332,-90.8320,1023.2,11111222 
WAVCIS,ioos:station:WAVCIS:CSI15:1,2009-02-08T22:00:00Z,28.8332,-90.8320,1022.58,11111222 
WAVCIS,ioos:station:WAVCIS:CSI15:1,2009-02-08T23:00:00Z,28.8332,-90.8320,1022.38,11111222 
WAVCIS,ioos:station:WAVCIS:CSI15:1,2009-02-09T00:00:00Z,28.8332,-90.8320,1021.98,11111222 
WAVCIS,ioos:station:WAVCIS:CSI15:1,2009-02-09T01:00:00Z,28.8332,-90.8320,1021.85,11111222 
WAVCIS,ioos:station:WAVCIS:CSI15:1,2009-02-09T02:00:00Z,28.8332,-90.8320,1021.17,11111222 
WAVCIS,ioos:station:WAVCIS:CSI15:1,2009-02-09T03:00:00Z,28.8332,-90.8320,1020.48,11111222 
WAVCIS,ioos:station:WAVCIS:CSI15:1,2009-02-09T04:00:00Z,28.8332,-90.8320,1020.04,11111222 
WAVCIS,ioos:station:WAVCIS:CSI15:1,2009-02-09T05:00:00Z,28.8332,-90.8320,1019.37,11111222 
WAVCIS,ioos:station:WAVCIS:CSI15:1,2009-02-09T06:00:00Z,28.8332,-90.8320,1018.97,11111222 
WAVCIS,ioos:station:WAVCIS:CSI15:1,2009-02-09T07:00:00Z,28.8332,-90.8320,1018.03,11111222 
WAVCIS,ioos:station:WAVCIS:CSI15:1,2009-02-09T08:00:00Z,28.8332,-90.8320,1018.02,11111222 
WAVCIS,ioos:station:WAVCIS:CSI15:1,2009-02-09T09:00:00Z,28.8332,-90.8320,1017.77,11111222 
WAVCIS,ioos:station:WAVCIS:CSI15:1,2009-02-09T10:00:00Z,28.8332,-90.8320,1017.62,11111222 
WAVCIS,ioos:station:WAVCIS:CSI15:1,2009-02-09T11:00:00Z,28.8332,-90.8320,1017.64,11111222 
WAVCIS,ioos:station:WAVCIS:CSI15:1,2009-02-09T12:00:00Z,28.8332,-90.8320,1017.44,11111222 
WAVCIS,ioos:station:WAVCIS:CSI15:1,2009-02-09T13:00:00Z,28.8332,-90.8320,1017.78,11111222 
WAVCIS,ioos:station:WAVCIS:CSI15:1,2009-02-09T14:00:00Z,28.8332,-90.8320,1017.94,11111222 
WAVCIS,ioos:station:WAVCIS:CSI15:1,2009-02-09T15:00:00Z,28.8332,-90.8320,1017.9,11111222 
WAVCIS,ioos:station:WAVCIS:CSI15:1,2009-02-09T16:00:00Z,28.8332,-90.8320,1018.53,11111222 
WAVCIS,ioos:station:WAVCIS:CSI15:1,2009-02-09T17:00:00Z,28.8332,-90.8320,1018.65,11111222 
WAVCIS,ioos:station:WAVCIS:CSI15:1,2009-02-09T18:00:00Z,28.8332,-90.8320,1018.24,11111222 
WAVCIS,ioos:station:WAVCIS:CSI15:1,2009-02-09T19:00:00Z,28.8332,-90.8320,1017.42,11111222 
WAVCIS,ioos:station:WAVCIS:CSI15:1,2009-02-09T20:00:00Z,28.8332,-90.8320,1016.7,11111222 
WAVCIS,ioos:station:WAVCIS:CSI15:1,2009-02-09T21:00:00Z,28.8332,-90.8320,1016.42,11111222 
WAVCIS,ioos:station:WAVCIS:CSI15:1,2009-02-09T22:00:00Z,28.8332,-90.8320,1016.25,11111222 
WAVCIS,ioos:station:WAVCIS:CSI15:1,2009-02-09T23:00:00Z,28.8332,-90.8320,1016.08,11111222 
WAVCIS,ioos:station:WAVCIS:CSI15:1,2009-02-10T00:00:00Z,28.8332,-90.8320,1016.09,11111222 
WAVCIS,ioos:station:WAVCIS:CSI15:1,2009-02-10T01:00:00Z,28.8332,-90.8320,1015.91,11111222 
WAVCIS,ioos:station:WAVCIS:CSI15:1,2009-02-10T02:00:00Z,28.8332,-90.8320,1015.59,11111222 
WAVCIS,ioos:station:WAVCIS:CSI15:1,2009-02-10T03:00:00Z,28.8332,-90.8320,1015.53,11111222 
WAVCIS,ioos:station:WAVCIS:CSI15:1,2009-02-10T04:00:00Z,28.8332,-90.8320,1015.92,11111222 
WAVCIS,ioos:station:WAVCIS:CSI15:1,2009-02-10T05:00:00Z,28.8332,-90.8320,1016.51,11111222 
WAVCIS,ioos:station:WAVCIS:CSI15:1,2009-02-10T06:00:00Z,28.8332,-90.8320,1016.16,11111222 
WAVCIS,ioos:station:WAVCIS:CSI15:1,2009-02-10T07:00:00Z,28.8332,-90.8320,1015.43,11111222 
WAVCIS,ioos:station:WAVCIS:CSI15:1,2009-02-10T08:00:00Z,28.8332,-90.8320,1014.81,11111222 
WAVCIS,ioos:station:WAVCIS:CSI15:1,2009-02-10T09:00:00Z,28.8332,-90.8320,1014.41,11111222 
WAVCIS,ioos:station:WAVCIS:CSI15:1,2009-02-10T10:00:00Z,28.8332,-90.8320,1013.91,11111222 
WAVCIS,ioos:station:WAVCIS:CSI15:1,2009-02-10T11:00:00Z,28.8332,-90.8320,1014.22,11111222 
WAVCIS,ioos:station:WAVCIS:CSI15:1,2009-02-10T12:00:00Z,28.8332,-90.8320,1014.23,11111222 
WAVCIS,ioos:station:WAVCIS:CSI15:1,2009-02-10T13:00:00Z,28.8332,-90.8320,1014.29,11111222 
WAVCIS,ioos:station:WAVCIS:CSI15:1,2009-02-10T14:00:00Z,28.8332,-90.8320,1014.74,11111222 
WAVCIS,ioos:station:WAVCIS:CSI15:1,2009-02-10T15:00:00Z,28.8332,-90.8320,1015.14,11111222 
WAVCIS,ioos:station:WAVCIS:CSI15:1,2009-02-10T16:00:00Z,28.8332,-90.8320,1015.44,11111222 
WAVCIS,ioos:station:WAVCIS:CSI15:1,2009-02-10T17:00:00Z,28.8332,-90.8320,1015.12,11111222 
WAVCIS,ioos:station:WAVCIS:CSI15:1,2009-02-10T18:00:00Z,28.8332,-90.8320,1014.78,11111222 
WAVCIS,ioos:station:WAVCIS:CSI15:1,2009-02-10T19:00:00Z,28.8332,-90.8320,1013.7,11111222 
WAVCIS,ioos:station:WAVCIS:CSI15:1,2009-02-10T20:00:00Z,28.8332,-90.8320,1012.8,11111222 
WAVCIS,ioos:station:WAVCIS:CSI15:1,2009-02-10T21:00:00Z,28.8332,-90.8320,1012.37,11111222 
WAVCIS,ioos:station:WAVCIS:CSI15:1,2009-02-10T22:00:00Z,28.8332,-90.8320,1011.93,11111222 
WAVCIS,ioos:station:WAVCIS:CSI15:1,2009-02-10T23:00:00Z,28.8332,-90.8320,1012.13,11111222 
WAVCIS,ioos:station:WAVCIS:CSI15:1,2009-02-11T00:00:00Z,28.8332,-90.8320,1012.26,11111222 
WAVCIS,ioos:station:WAVCIS:CSI15:1,2009-02-11T01:00:00Z,28.8332,-90.8320,1011.54,11111222 
WAVCIS,ioos:station:WAVCIS:CSI15:1,2009-02-11T02:00:00Z,28.8332,-90.8320,1011.39,11111222 
WAVCIS,ioos:station:WAVCIS:CSI15:1,2009-02-11T03:00:00Z,28.8332,-90.8320,1011.23,11111222 
WAVCIS,ioos:station:WAVCIS:CSI15:1,2009-02-11T04:00:00Z,28.8332,-90.8320,1011.06,11111222 
WAVCIS,ioos:station:WAVCIS:CSI15:1,2009-02-11T05:00:00Z,28.8332,-90.8320,1010.57,11111222 
WAVCIS,ioos:station:WAVCIS:CSI15:1,2009-02-11T06:00:00Z,28.8332,-90.8320,1010.56,11111222 
WAVCIS,ioos:station:WAVCIS:CSI15:1,2009-02-11T07:00:00Z,28.8332,-90.8320,1010.39,11111222 
WAVCIS,ioos:station:WAVCIS:CSI15:1,2009-02-11T08:00:00Z,28.8332,-90.8320,1009.1,11111222 
WAVCIS,ioos:station:WAVCIS:CSI15:1,2009-02-11T09:00:00Z,28.8332,-90.8320,1008.53,11111222 
WAVCIS,ioos:station:WAVCIS:CSI15:1,2009-02-11T10:00:00Z,28.8332,-90.8320,1009.33,11111222 
WAVCIS,ioos:station:WAVCIS:CSI15:1,2009-02-11T11:00:00Z,28.8332,-90.8320,1009.85,11111222 
WAVCIS,ioos:station:WAVCIS:CSI15:1,2009-02-11T12:00:00Z,28.8332,-90.8320,1010.64,11111222 
WAVCIS,ioos:station:WAVCIS:CSI15:1,2009-02-11T13:00:00Z,28.8332,-90.8320,1012.8,11111222 
WAVCIS,ioos:station:WAVCIS:CSI15:1,2009-02-11T14:00:00Z,28.8332,-90.8320,1013.32,11111222 
WAVCIS,ioos:station:WAVCIS:CSI15:1,2009-02-11T15:00:00Z,28.8332,-90.8320,1013.81,11111222 
WAVCIS,ioos:station:WAVCIS:CSI15:1,2009-02-11T16:00:00Z,28.8332,-90.8320,1015.12,11111222 
WAVCIS,ioos:station:WAVCIS:CSI15:1,2009-02-11T17:00:00Z,28.8332,-90.8320,1015.62,11111222 
WAVCIS,ioos:station:WAVCIS:CSI15:1,2009-02-11T18:00:00Z,28.8332,-90.8320,1015.61,11111222 
WAVCIS,ioos:station:WAVCIS:CSI15:1,2009-02-11T19:00:00Z,28.8332,-90.8320,1015.1,11111222 
WAVCIS,ioos:station:WAVCIS:CSI15:1,2009-02-11T20:00:00Z,28.8332,-90.8320,1014.87,11111222 
WAVCIS,ioos:station:WAVCIS:CSI15:1,2009-02-11T21:00:00Z,28.8332,-90.8320,1014.89,11111222 
WAVCIS,ioos:station:WAVCIS:CSI15:1,2009-02-11T22:00:00Z,28.8332,-90.8320,1015.14,11111222 